Simultaneous Nadir Overpasses (SNOs) Predictions

Prediction of SNOs between AQUA and NOAA-19 Satellite Orbit:

Table of predicted SNOs for the next 14.0 days since TLE Epoch: 5/2/2020
Index Date (AQUA) Time (AQUA) Lat,Lon (AQUA) SZA (AQUA ) Date (NOAA-19) Time (NOAA-19) Lat,Lon (NOAA-19) SZA (NOAA-19 ) Distance(km) Time Diff (sec)
1 05/04/2020 00:24:44 -79.83, -35.35 114.97 05/04/2020 00:24:01 -79.83, -35.32 114.96 0.63 43
2 05/04/2020 01:14:12 79.86, 132.07 65.06 05/04/2020 01:15:06 79.83, 131.97 65.03 3.61 54
3 05/06/2020 05:58:27 79.81, 61.41 64.36 05/06/2020 05:57:25 79.82, 61.33 64.40 2.12 62
4 05/06/2020 06:47:54 -79.84,-131.25 115.60 05/06/2020 06:48:20 -79.83,-131.29 115.61 1.98 26
5 05/08/2020 12:21:37 79.83, -34.55 63.77 05/08/2020 12:21:44 79.82, -34.64 63.77 2.04 7
6 05/10/2020 17:55:18 -79.81, 62.16 116.84 05/10/2020 17:54:57 -79.81, 62.05 116.82 2.06 21
7 05/10/2020 18:44:47 79.89,-130.80 63.27 05/10/2020 18:45:57 79.94,-129.11 63.15 33.63 70
8 05/12/2020 23:29:01 79.81, 158.75 62.60 05/12/2020 23:28:21 79.80, 158.65 62.62 2.08 40
9 05/13/2020 00:18:28 -79.83, -33.81 117.37 05/13/2020 00:19:16 -79.81, -33.94 117.40 3.39 48
10 05/15/2020 05:02:43 -79.79,-104.53 117.97 05/15/2020 05:01:35 -79.80,-104.62 117.93 2.13 68




NCC Satellite Simultaneous Nadir Overpasses (SNOs) Prediction Service
